Weather History for Capo Bellavista, Italy

Change the Weather History Date:

Saturday, October 6, 2012

  Actual Average (LIED) Record (LIED)
Temperature  
Mean Temperature 72 °F -  
Max Temperature 80 °F 70 °F 89 °F (2001)
Min Temperature 64 °F 59 °F 48 °F (2008)
Cooling Degree Days 7    
Growing Degree Days 22 (Base 50)    
Moisture  
Dew Point 66 °F    
Average Humidity 88    
Maximum Humidity 100    
Minimum Humidity 59    
Precipitation  
Precipitation 0.00 in 0.09 in - ()
Sea Level Pressure  
Sea Level Pressure 30.10 in    
Wind  
Wind Speed 7 mph ()    
Max Wind Speed 13 mph    
Max Gust Speed -    
Visibility 8.5 miles    
Events      
Averages and records for this station are not official NWS values.
T = Trace of Precipitation, MM = Missing Value Source: Averaged Metar Reports

Daily Weather History Graph

Daily Weather History Graph

Search for Another Location

Airport:

Trip Planner

Search our weather history database for the weather conditions in past years. The results will help you decide how hot, cold, wet, or windy it might be!

Date:

Astronomy

Oct. 06, 2012 Rise Set
Actual Time 7:22 AM CEST 6:55 PM CEST
Civil Twilight 6:55 AM CEST 7:22 PM CEST
Nautical Twilight 6:24 AM CEST 7:53 PM CEST
Astronomical Twilight 5:52 AM CEST 8:24 PM CEST
Moon 10:56 PM CEST (10/6) 1:04 PM CEST (10/6)
Length of Visible Light 12h 26m
Length of Day
11h 32m
Waning Gibbous, 68% of the Moon is Illuminated
Oct 6
Waning Gibbous
Oct 8
Last Quarter
Oct 15
New
Oct 22
First Quarter
Oct 29
Full

Hourly Weather History & Observations

Time (CEST) Temp. Dew Point Humidity Pressure Visibility Wind Dir Wind Speed Gust Speed Precip Events Conditions
12:55 AM 66.2 °F 64.4 °F 94% 30.09 in - West 9.2 mph - N/A   Clear
1:55 AM 66.2 °F 64.4 °F 94% 30.09 in - West 8.1 mph - N/A   Clear
2:00 AM 66 °F 65 °F 94% 30.11 in 12 mi West 8.1 mph - -  
2:55 AM 66.2 °F 64.4 °F 94% 30.12 in - WNW 5.8 mph - N/A   Clear
3:55 AM 64.4 °F 64.4 °F 100% 30.09 in - West 6.9 mph - N/A   Clear
4:55 AM 64.4 °F 64.4 °F 100% 30.09 in - WNW 10.4 mph - N/A   Clear
5:55 AM 64.4 °F 64.4 °F 100% 30.09 in - WNW 10.4 mph - N/A   Clear
6:55 AM 64.4 °F 60.8 °F 88% 30.09 in - West 9.2 mph - N/A   Clear
7:55 AM 66.2 °F 62.6 °F 88% 30.09 in - West 8.1 mph - N/A   Clear
8:00 AM 65 °F 62 °F 86% 30.11 in 12 mi West 8.1 mph - -  
8:55 AM 66.2 °F 62.6 °F 88% 30.09 in 6.2 mi WNW 8.1 mph - N/A   Partly Cloudy
9:55 AM 66.2 °F 60.8 °F 83% 30.09 in - WNW 6.9 mph - N/A   Clear
10:55 AM 71.6 °F 66.2 °F 83% 30.12 in - South 8.1 mph - N/A   Clear
12:55 PM 78.8 °F 68.0 °F 69% 30.12 in - South 3.5 mph - N/A   Clear
1:55 PM 78.8 °F 68.0 °F 69% 30.12 in 6.2 mi South 4.6 mph - N/A   Partly Cloudy
2:00 PM 79 °F 67 °F 59% 30.12 in 12 mi South 4.6 mph - -   Scattered Clouds
2:55 PM 78.8 °F 68.0 °F 69% 30.12 in 6.2 mi South 4.6 mph - N/A   Partly Cloudy
3:55 PM 77.0 °F 69.8 °F 78% 30.09 in 6.2 mi South 9.2 mph - N/A   Partly Cloudy
4:55 PM 75.2 °F 68.0 °F 78% 30.09 in 6.2 mi South 10.4 mph - N/A   Partly Cloudy
5:55 PM 75.2 °F 69.8 °F 83% 30.09 in 6.2 mi South 9.2 mph - N/A   Partly Cloudy
6:55 PM 71.6 °F 71.6 °F 100% 30.09 in - SSW 12.7 mph - N/A   Clear
7:55 PM 71.6 °F 69.8 °F 94% 30.09 in - SSW 12.7 mph - N/A   Clear
8:00 PM 71 °F 70 °F 97% 30.09 in 12 mi SSW 12.7 mph - -  
9:55 PM 69.8 °F 69.8 °F 100% 30.09 in - SW 8.1 mph - N/A   Clear
10:55 PM 69.8 °F 68.0 °F 94% 30.09 in - SSW 4.6 mph - N/A   Clear
11:55 PM 68.0 °F 66.2 °F 94% 30.09 in - East 3.5 mph - N/A   Clear